Zurück zum Katalog

STARLINK-35988

AktivKommunikationVLEO
NORAD 66615·PAYLOAD·🇺🇸 United States

Gestartet Nov 22, 2025 von Cape Canaveral Space Force Station

Loading…

Nächste Überflüge (nächste 24 Stunden)

TLE

AktuellSource: CelesTrak SupGP

Epoche: Sep 15, 2026, 03:47 UTC

1 66615C 25270AD  26258.15812500 -.00027242  00000+0 -98651-3 0  2583
2 66615  43.0001  66.0501 0001520 269.3430  99.2072 15.27598008    12

Verfolge STARLINK-35988 in Echtzeit mit AllMySat

Download on the App Store